Time,TemperatureF,DewpointF,PressureIn,WindDirection,WindDirectionDegrees,WindSpeedMPH,WindSpeedGustMPH,Humidity,HourlyPrecipIn,Conditions,Clouds,dailyrainin,SoftwareType,DateUTC
2013-10-13 00:01:00,48.6,37.0,30.17,WNW,285,0.0,0.0,64,0.00,,CLR,0.00,VWS V14.01,2013-10-13 05:01:00,
2013-10-13 00:06:00,47.9,37.1,30.17,WNW,285,0.0,0.0,66,0.00,,CLR,0.00,VWS V14.01,2013-10-13 05:06:00,
2013-10-13 00:11:00,47.4,37.0,30.17,WNW,285,0.0,0.0,67,0.00,,CLR,0.00,VWS V14.01,2013-10-13 05:11:00,
2013-10-13 00:16:00,47.0,37.0,30.17,WNW,285,0.0,0.0,68,0.00,,CLR,0.00,VWS V14.01,2013-10-13 05:16:00,
2013-10-13 00:21:00,46.8,37.5,30.17,WNW,285,0.0,0.0,70,0.00,,CLR,0.00,VWS V14.01,2013-10-13 05:21:00,
2013-10-13 00:26:00,46.5,37.3,30.17,WNW,285,0.0,0.0,70,0.00,,CLR,0.00,VWS V14.01,2013-10-13 05:26:00,
2013-10-13 00:31:00,46.4,37.2,30.18,WNW,285,0.0,0.0,70,0.00,,CLR,0.00,VWS V14.01,2013-10-13 05:31:00,
2013-10-13 00:36:00,46.2,37.3,30.18,WNW,285,0.0,0.0,71,0.00,,CLR,0.00,VWS V14.01,2013-10-13 05:36:00,
2013-10-13 00:41:00,46.0,37.5,30.18,WNW,285,0.0,0.0,72,0.00,,CLR,0.00,VWS V14.01,2013-10-13 05:41:00,
2013-10-13 00:46:00,45.7,37.5,30.19,WNW,285,0.0,0.0,73,0.00,,CLR,0.00,VWS V14.01,2013-10-13 05:46:00,
2013-10-13 00:51:00,45.4,37.3,30.19,WNW,285,0.0,0.0,73,0.00,,CLR,0.00,VWS V14.01,2013-10-13 05:51:00,
2013-10-13 00:56:00,45.1,37.0,30.19,WNW,285,0.0,0.0,73,0.00,,CLR,0.00,VWS V14.01,2013-10-13 05:56:00,
2013-10-13 01:01:00,44.9,37.1,30.19,WNW,285,0.0,0.0,74,0.00,,CLR,0.00,VWS V14.01,2013-10-13 06:01:00,
2013-10-13 01:06:00,44.6,36.8,30.19,WNW,285,0.0,0.0,74,0.00,,CLR,0.00,VWS V14.01,2013-10-13 06:06:00,
2013-10-13 01:11:00,44.5,36.7,30.19,WNW,285,0.0,0.0,74,0.00,,CLR,0.00,VWS V14.01,2013-10-13 06:11:00,
2013-10-13 01:16:00,44.5,36.7,30.20,WNW,285,0.0,0.0,74,0.00,,CLR,0.00,VWS V14.01,2013-10-13 06:16:00,
2013-10-13 01:21:00,44.6,36.5,30.20,WNW,285,0.0,0.0,73,0.00,,CLR,0.00,VWS V14.01,2013-10-13 06:21:00,
2013-10-13 01:26:00,44.8,36.7,30.20,WNW,285,0.0,0.0,73,0.00,,CLR,0.00,VWS V14.01,2013-10-13 06:26:00,
2013-10-13 01:31:00,44.8,36.7,30.20,WNW,285,0.0,0.0,73,0.00,,CLR,0.00,VWS V14.01,2013-10-13 06:31:00,
2013-10-13 01:36:00,44.5,36.4,30.20,WNW,285,0.0,0.0,73,0.00,,CLR,0.00,VWS V14.01,2013-10-13 06:36:00,
2013-10-13 01:40:00,44.2,36.5,30.20,WNW,285,0.0,0.0,74,0.00,,CLR,0.00,VWS V14.01,2013-10-13 06:40:00,
2013-10-13 01:45:00,43.8,36.1,30.21,WNW,285,0.0,0.0,74,0.00,,CLR,0.00,VWS V14.01,2013-10-13 06:45:00,
2013-10-13 01:50:00,43.3,35.9,30.21,WNW,285,0.0,0.0,75,0.00,,CLR,0.00,VWS V14.01,2013-10-13 06:50:00,
2013-10-13 01:55:00,43.2,36.2,30.21,WNW,285,0.0,0.0,76,0.00,,CLR,0.00,VWS V14.01,2013-10-13 06:55:00,
2013-10-13 02:00:00,43.1,36.4,30.22,WNW,285,0.0,0.0,77,0.00,,CLR,0.00,VWS V14.01,2013-10-13 07:00:00,
2013-10-13 02:05:00,43.6,36.2,30.22,WNW,285,2.0,3.0,75,0.00,,CLR,0.00,VWS V14.01,2013-10-13 07:05:00,
2013-10-13 02:10:00,44.2,36.5,30.22,WNW,285,1.0,3.0,74,0.00,,CLR,0.00,VWS V14.01,2013-10-13 07:10:00,
2013-10-13 02:15:00,44.8,36.7,30.22,WNW,285,0.0,0.0,73,0.00,,CLR,0.00,VWS V14.01,2013-10-13 07:15:00,
2013-10-13 02:20:00,45.2,36.4,30.22,WNW,285,0.0,0.0,71,0.00,,CLR,0.00,VWS V14.01,2013-10-13 07:20:00,
2013-10-13 02:25:00,45.4,36.6,30.22,WNW,285,0.0,0.0,71,0.00,,CLR,0.00,VWS V14.01,2013-10-13 07:25:00,
2013-10-13 02:30:00,45.4,36.6,30.22,WNW,285,0.0,0.0,71,0.00,,CLR,0.00,VWS V14.01,2013-10-13 07:30:00,
2013-10-13 02:35:00,45.4,36.6,30.22,WNW,285,0.0,0.0,71,0.00,,CLR,0.00,VWS V14.01,2013-10-13 07:35:00,
2013-10-13 02:40:00,45.4,36.6,30.22,WNW,285,0.0,0.0,71,0.00,,CLR,0.00,VWS V14.01,2013-10-13 07:40:00,
2013-10-13 02:45:00,45.2,36.4,30.22,WNW,285,0.0,0.0,71,0.00,,CLR,0.00,VWS V14.01,2013-10-13 07:45:00,
2013-10-13 02:50:00,45.4,36.2,30.22,WNW,285,0.0,0.0,70,0.00,,CLR,0.00,VWS V14.01,2013-10-13 07:50:00,
2013-10-13 02:55:00,45.2,36.0,30.22,WNW,285,0.0,0.0,70,0.00,,CLR,0.00,VWS V14.01,2013-10-13 07:55:00,
2013-10-13 03:00:00,45.2,36.4,30.22,WNW,285,0.0,0.0,71,0.00,,CLR,0.00,VWS V14.01,2013-10-13 08:00:00,
2013-10-13 03:05:00,45.1,36.3,30.22,WNW,285,0.0,0.0,71,0.00,,CLR,0.00,VWS V14.01,2013-10-13 08:05:00,
2013-10-13 03:10:00,44.9,36.1,30.22,WNW,285,0.0,0.0,71,0.00,,CLR,0.00,VWS V14.01,2013-10-13 08:10:00,
2013-10-13 03:15:00,44.6,36.2,30.23,WNW,285,0.0,0.0,72,0.00,,CLR,0.00,VWS V14.01,2013-10-13 08:15:00,
2013-10-13 03:20:00,44.5,36.0,30.23,WNW,285,0.0,0.0,72,0.00,,CLR,0.00,VWS V14.01,2013-10-13 08:20:00,
2013-10-13 03:25:00,44.5,36.0,30.23,WNW,285,0.0,0.0,72,0.00,,CLR,0.00,VWS V14.01,2013-10-13 08:25:00,
2013-10-13 03:30:00,44.5,36.4,30.23,WNW,285,0.0,0.0,73,0.00,,CLR,0.00,VWS V14.01,2013-10-13 08:30:00,
2013-10-13 03:35:00,44.5,36.4,30.23,WNW,285,0.0,0.0,73,0.00,,CLR,0.00,VWS V14.01,2013-10-13 08:35:00,
2013-10-13 03:40:00,44.5,36.0,30.23,WNW,285,0.0,0.0,72,0.00,,CLR,0.00,VWS V14.01,2013-10-13 08:40:00,
2013-10-13 03:45:00,44.3,36.2,30.24,WNW,285,0.0,0.0,73,0.00,,CLR,0.00,VWS V14.01,2013-10-13 08:45:00,
2013-10-13 03:50:00,44.5,36.0,30.24,WNW,285,0.0,0.0,72,0.00,,CLR,0.00,VWS V14.01,2013-10-13 08:50:00,
2013-10-13 03:55:00,44.5,36.4,30.24,WNW,284,1.0,4.0,73,0.00,,CLR,0.00,VWS V14.01,2013-10-13 08:55:00,
2013-10-13 04:00:00,44.6,36.5,30.25,WSW,256,0.0,0.0,73,0.00,,CLR,0.00,VWS V14.01,2013-10-13 09:00:00,
2013-10-13 04:05:00,44.6,36.5,30.25,WSW,256,0.0,0.0,73,0.00,,CLR,0.00,VWS V14.01,2013-10-13 09:05:00,
2013-10-13 04:10:00,44.3,36.5,30.25,WSW,256,0.0,0.0,74,0.00,,CLR,0.00,VWS V14.01,2013-10-13 09:10:00,
2013-10-13 04:15:00,44.1,36.4,30.26,WSW,256,0.0,0.0,74,0.00,,CLR,0.00,VWS V14.01,2013-10-13 09:15:00,
2013-10-13 04:20:00,43.8,36.4,30.26,WSW,256,0.0,0.0,75,0.00,,CLR,0.00,VWS V14.01,2013-10-13 09:20:00,
2013-10-13 04:25:00,43.6,36.2,30.26,WSW,256,0.0,0.0,75,0.00,,CLR,0.00,VWS V14.01,2013-10-13 09:25:00,
2013-10-13 04:30:00,43.6,36.5,30.26,WSW,256,0.0,0.0,76,0.00,,CLR,0.00,VWS V14.01,2013-10-13 09:30:00,
2013-10-13 04:35:00,43.5,36.5,30.26,WSW,256,0.0,0.0,76,0.00,,CLR,0.00,VWS V14.01,2013-10-13 09:35:00,
2013-10-13 04:40:00,43.5,36.8,30.26,WSW,256,0.0,5.0,77,0.00,,CLR,0.00,VWS V14.01,2013-10-13 09:40:00,
2013-10-13 04:45:00,43.3,36.6,30.27,WSW,256,0.0,0.0,77,0.00,,CLR,0.00,VWS V14.01,2013-10-13 09:45:00,
2013-10-13 04:50:00,43.2,36.8,30.27,WSW,256,0.0,0.0,78,0.00,,CLR,0.00,VWS V14.01,2013-10-13 09:50:00,
2013-10-13 04:55:00,43.2,36.8,30.27,WSW,256,0.0,0.0,78,0.00,,CLR,0.00,VWS V14.01,2013-10-13 09:55:00,
2013-10-13 05:00:00,43.2,36.8,30.28,WSW,256,0.0,0.0,78,0.00,,CLR,0.00,VWS V14.01,2013-10-13 10:00:00,
2013-10-13 05:05:00,42.9,36.5,30.28,WSW,256,0.0,0.0,78,0.00,,CLR,0.00,VWS V14.01,2013-10-13 10:05:00,
2013-10-13 05:10:00,42.6,36.5,30.28,WSW,256,0.0,0.0,79,0.00,,CLR,0.00,VWS V14.01,2013-10-13 10:10:00,
2013-10-13 05:15:00,42.3,36.6,30.29,WSW,257,1.0,2.0,80,0.00,,CLR,0.00,VWS V14.01,2013-10-13 10:15:00,
2013-10-13 05:20:00,42.2,36.8,30.29,West,265,3.0,5.0,81,0.00,,CLR,0.00,VWS V14.01,2013-10-13 10:20:00,
2013-10-13 05:25:00,42.3,36.9,30.29,WNW,284,2.0,6.0,81,0.00,,CLR,0.00,VWS V14.01,2013-10-13 10:25:00,
2013-10-13 05:30:00,42.6,37.2,30.30,WNW,284,0.0,3.0,81,0.00,,CLR,0.00,VWS V14.01,2013-10-13 10:30:00,
2013-10-13 05:35:00,42.8,37.1,30.30,WNW,284,0.0,0.0,80,0.00,,CLR,0.00,VWS V14.01,2013-10-13 10:35:00,
2013-10-13 05:40:00,42.8,37.1,30.30,WNW,284,1.0,2.0,80,0.00,,CLR,0.00,VWS V14.01,2013-10-13 10:40:00,
2013-10-13 05:45:00,42.5,37.1,30.30,WNW,284,0.0,2.0,81,0.00,,CLR,0.00,VWS V14.01,2013-10-13 10:45:00,
2013-10-13 05:50:00,42.3,36.9,30.30,WNW,285,0.0,0.0,81,0.00,,CLR,0.00,VWS V14.01,2013-10-13 10:50:00,
2013-10-13 05:55:00,42.2,36.8,30.30,WNW,285,0.0,0.0,81,0.00,,CLR,0.00,VWS V14.01,2013-10-13 10:55:00,
2013-10-13 06:00:00,42.1,37.0,30.30,WNW,285,0.0,0.0,82,0.00,,CLR,0.00,VWS V14.01,2013-10-13 11:00:00,
2013-10-13 06:05:00,41.9,36.8,30.30,WNW,285,0.0,0.0,82,0.00,,CLR,0.00,VWS V14.01,2013-10-13 11:05:00,
2013-10-13 06:10:00,41.8,36.7,30.30,WNW,285,0.0,0.0,82,0.00,,CLR,0.00,VWS V14.01,2013-10-13 11:10:00,
2013-10-13 06:15:00,41.6,36.8,30.31,WNW,285,0.0,0.0,83,0.00,,CLR,0.00,VWS V14.01,2013-10-13 11:15:00,
2013-10-13 06:20:00,41.5,36.7,30.31,WNW,285,0.0,0.0,83,0.00,,CLR,0.00,VWS V14.01,2013-10-13 11:20:00,
2013-10-13 06:25:00,41.5,36.7,30.31,WNW,285,0.0,0.0,83,0.00,,CLR,0.00,VWS V14.01,2013-10-13 11:25:00,
2013-10-13 06:30:00,41.5,37.0,30.32,WNW,285,2.0,2.0,84,0.00,,CLR,0.00,VWS V14.01,2013-10-13 11:30:00,
2013-10-13 06:35:00,41.3,36.8,30.32,WNW,285,2.0,2.0,84,0.00,,SKC,0.00,VWS V14.01,2013-10-13 11:35:00,
2013-10-13 06:40:00,41.3,36.8,30.32,WNW,285,3.0,4.0,84,0.00,,SKC,0.00,VWS V14.01,2013-10-13 11:40:00,
2013-10-13 06:45:00,41.3,36.8,30.33,WNW,285,5.0,5.0,84,0.00,,SKC,0.00,VWS V14.01,2013-10-13 11:45:00,
2013-10-13 06:50:00,41.3,36.8,30.33,WNW,287,2.0,3.0,84,0.00,,SKC,0.00,VWS V14.01,2013-10-13 11:50:00,
2013-10-13 06:55:00,41.2,36.7,30.33,WNW,287,2.0,3.0,84,0.00,,SKC,0.00,VWS V14.01,2013-10-13 11:55:00,
2013-10-13 07:00:00,41.1,36.9,30.33,WNW,287,0.0,2.0,85,0.00,,SKC,0.00,VWS V14.01,2013-10-13 12:00:00,
2013-10-13 07:05:00,41.1,36.9,30.33,WNW,287,2.0,2.0,85,0.00,,SKC,0.00,VWS V14.01,2013-10-13 12:05:00,
2013-10-13 07:10:00,41.1,36.9,30.33,WNW,289,0.0,0.0,85,0.00,,SKC,0.00,VWS V14.01,2013-10-13 12:10:00,
2013-10-13 07:15:00,41.2,37.0,30.33,West,275,2.0,2.0,85,0.00,,SKC,0.00,VWS V14.01,2013-10-13 12:15:00,
2013-10-13 07:20:00,41.2,37.0,30.33,West,275,0.0,0.0,85,0.00,,SKC,0.00,VWS V14.01,2013-10-13 12:20:00,
2013-10-13 07:25:00,41.2,37.0,30.33,West,275,0.0,0.0,85,0.00,,SKC,0.00,VWS V14.01,2013-10-13 12:25:00,
2013-10-13 07:30:00,41.5,37.3,30.34,West,275,0.0,0.0,85,0.00,,SKC,0.00,VWS V14.01,2013-10-13 12:30:00,
2013-10-13 07:35:00,41.6,37.4,30.34,West,275,0.0,0.0,85,0.00,,SKC,0.00,VWS V14.01,2013-10-13 12:35:00,
2013-10-13 07:40:00,42.1,37.9,30.34,West,275,3.0,3.0,85,0.00,,SKC,0.00,VWS V14.01,2013-10-13 12:40:00,
2013-10-13 07:45:00,42.5,38.0,30.35,West,278,3.0,4.0,84,0.00,,SKC,0.00,VWS V14.01,2013-10-13 12:45:00,
2013-10-13 07:50:00,42.8,38.3,30.35,West,278,1.0,3.0,84,0.00,,SKC,0.00,VWS V14.01,2013-10-13 12:50:00,
2013-10-13 07:55:00,43.2,38.7,30.35,WNW,295,6.0,7.0,84,0.00,,SKC,0.00,VWS V14.01,2013-10-13 12:55:00,
2013-10-13 08:00:00,43.5,38.7,30.35,WNW,295,5.0,7.0,83,0.00,,SKC,0.00,VWS V14.01,2013-10-13 13:00:00,
2013-10-13 08:05:00,43.9,39.1,30.35,WNW,296,3.0,6.0,83,0.00,,SKC,0.00,VWS V14.01,2013-10-13 13:05:00,
2013-10-13 08:10:00,44.2,39.4,30.35,WNW,296,5.0,6.0,83,0.00,,SKC,0.00,VWS V14.01,2013-10-13 13:10:00,
2013-10-13 08:15:00,44.5,39.4,30.36,WNW,294,7.0,7.0,82,0.00,,SKC,0.00,VWS V14.01,2013-10-13 13:15:00,
2013-10-13 08:20:00,44.9,39.8,30.36,WNW,294,6.0,6.0,82,0.00,,SKC,0.00,VWS V14.01,2013-10-13 13:20:00,
2013-10-13 08:25:00,45.2,40.0,30.36,WNW,288,6.0,8.0,82,0.00,,SKC,0.00,VWS V14.01,2013-10-13 13:25:00,
2013-10-13 08:30:00,45.7,40.5,30.36,WNW,291,4.0,4.0,82,0.00,,SKC,0.00,VWS V14.01,2013-10-13 13:30:00,
2013-10-13 08:35:00,46.0,40.8,30.36,WNW,287,3.0,8.0,82,0.00,,SKC,0.00,VWS V14.01,2013-10-13 13:35:00,
2013-10-13 08:40:00,46.4,40.9,30.36,WNW,294,5.0,7.0,81,0.00,,SKC,0.00,VWS V14.01,2013-10-13 13:40:00,
2013-10-13 08:45:00,46.7,40.9,30.37,WNW,295,6.0,10.0,80,0.00,,SKC,0.00,VWS V14.01,2013-10-13 13:45:00,
2013-10-13 08:50:00,47.1,41.6,30.37,NW,305,6.0,7.0,81,0.00,,SKC,0.00,VWS V14.01,2013-10-13 13:50:00,
2013-10-13 08:55:00,47.4,41.5,30.37,NW,308,7.0,7.0,80,0.00,,SKC,0.00,VWS V14.01,2013-10-13 13:55:00,
2013-10-13 09:00:00,47.6,41.4,30.37,WNW,296,9.0,10.0,79,0.00,,SKC,0.00,VWS V14.01,2013-10-13 14:00:00,
2013-10-13 09:05:00,47.9,41.7,30.37,WNW,292,5.0,7.0,79,0.00,,SKC,0.00,VWS V14.01,2013-10-13 14:05:00,
2013-10-13 09:10:00,48.2,42.0,30.37,NW,308,6.0,7.0,79,0.00,,SKC,0.00,VWS V14.01,2013-10-13 14:10:00,
2013-10-13 09:15:00,48.6,42.1,30.37,NW,308,7.0,8.0,78,0.00,,SKC,0.00,VWS V14.01,2013-10-13 14:15:00,
2013-10-13 09:20:00,49.1,42.9,30.37,NW,313,2.0,7.0,79,0.00,,SKC,0.00,VWS V14.01,2013-10-13 14:20:00,
2013-10-13 09:25:00,49.4,42.8,30.37,WNW,298,11.0,13.0,78,0.00,,SKC,0.00,VWS V14.01,2013-10-13 14:25:00,
2013-10-13 09:30:00,49.4,42.2,30.37,NW,312,12.0,16.0,76,0.00,,SKC,0.00,VWS V14.01,2013-10-13 14:30:00,
2013-10-13 09:35:00,49.6,42.4,30.37,NW,320,13.0,14.0,76,0.00,,SKC,0.00,VWS V14.01,2013-10-13 14:35:00,
2013-10-13 09:40:00,49.9,42.7,30.37,NNW,329,6.0,8.0,76,0.00,,SKC,0.00,VWS V14.01,2013-10-13 14:40:00,
2013-10-13 09:45:00,50.4,42.8,30.38,NW,316,11.0,11.0,75,0.00,,SKC,0.00,VWS V14.01,2013-10-13 14:45:00,
2013-10-13 09:50:00,50.5,42.9,30.38,WNW,299,12.0,12.0,75,0.00,,SKC,0.00,VWS V14.01,2013-10-13 14:50:00,
2013-10-13 09:55:00,50.5,42.5,30.38,NW,318,7.0,10.0,74,0.00,,SKC,0.00,VWS V14.01,2013-10-13 14:55:00,
2013-10-13 10:00:00,50.7,42.4,30.38,NW,306,14.0,14.0,73,0.00,,SKC,0.00,VWS V14.01,2013-10-13 15:00:00,
2013-10-13 10:05:00,50.8,42.8,30.38,NW,319,7.0,8.0,74,0.00,,SKC,0.00,VWS V14.01,2013-10-13 15:05:00,
2013-10-13 10:10:00,51.1,42.4,30.38,NNW,329,2.0,9.0,72,0.00,,SKC,0.00,VWS V14.01,2013-10-13 15:10:00,
2013-10-13 10:15:00,51.3,41.9,30.38,WNW,299,8.0,12.0,70,0.00,,SKC,0.00,VWS V14.01,2013-10-13 15:15:00,
2013-10-13 10:20:00,51.9,42.4,30.38,NNW,342,6.0,8.0,70,0.00,,SKC,0.00,VWS V14.01,2013-10-13 15:20:00,
2013-10-13 10:25:00,52.2,42.3,30.38,NW,320,9.0,13.0,69,0.00,,SKC,0.00,VWS V14.01,2013-10-13 15:25:00,
2013-10-13 10:30:00,52.6,42.7,30.38,NNW,340,6.0,7.0,69,0.00,,SKC,0.00,VWS V14.01,2013-10-13 15:30:00,
2013-10-13 10:35:00,53.2,42.9,30.38,NW,319,10.0,10.0,68,0.00,,SKC,0.00,VWS V14.01,2013-10-13 15:35:00,
2013-10-13 10:40:00,53.2,41.8,30.38,NW,315,9.0,11.0,65,0.00,,SKC,0.00,VWS V14.01,2013-10-13 15:40:00,
2013-10-13 10:45:00,53.2,41.3,30.38,NW,308,11.0,11.0,64,0.00,,SKC,0.00,VWS V14.01,2013-10-13 15:45:00,
2013-10-13 10:50:00,53.1,41.3,30.38,NNW,330,4.0,6.0,64,0.00,,SKC,0.00,VWS V14.01,2013-10-13 15:50:00,
2013-10-13 10:55:00,53.6,42.1,30.38,NW,304,12.0,16.0,65,0.00,,SKC,0.00,VWS V14.01,2013-10-13 15:55:00,
2013-10-13 11:00:00,53.5,42.0,30.39,WNW,302,13.0,16.0,65,0.00,,SKC,0.00,VWS V14.01,2013-10-13 16:00:00,
2013-10-13 11:05:00,53.2,41.8,30.39,NW,312,6.0,7.0,65,0.00,,SKC,0.00,VWS V14.01,2013-10-13 16:05:00,
2013-10-13 11:10:00,53.5,41.2,30.39,NW,315,10.0,12.0,63,0.00,,SKC,0.00,VWS V14.01,2013-10-13 16:10:00,
2013-10-13 11:15:00,53.2,40.5,30.39,WNW,295,9.0,10.0,62,0.00,,SKC,0.00,VWS V14.01,2013-10-13 16:15:00,
2013-10-13 11:20:00,53.3,41.0,30.39,North,359,12.0,13.0,63,0.00,,SKC,0.00,VWS V14.01,2013-10-13 16:20:00,
2013-10-13 11:25:00,53.9,40.3,30.39,WNW,299,18.0,18.0,60,0.00,,SKC,0.00,VWS V14.01,2013-10-13 16:25:00,
2013-10-13 11:30:00,54.1,40.5,30.39,WNW,302,8.0,11.0,60,0.00,,SKC,0.00,VWS V14.01,2013-10-13 16:30:00,
2013-10-13 11:35:00,54.1,41.4,30.39,NW,304,11.0,11.0,62,0.00,,FEW020,0.00,VWS V14.01,2013-10-13 16:35:00,
2013-10-13 11:40:00,54.4,41.7,30.39,WNW,301,14.0,14.0,62,0.00,,FEW020,0.00,VWS V14.01,2013-10-13 16:40:00,
2013-10-13 11:45:00,54.2,41.1,30.40,NNW,340,12.0,13.0,61,0.00,,FEW020,0.00,VWS V14.01,2013-10-13 16:45:00,
2013-10-13 11:50:00,54.4,42.1,30.40,North,350,8.0,8.0,63,0.00,,FEW020,0.00,VWS V14.01,2013-10-13 16:50:00,
2013-10-13 11:55:00,54.2,41.5,30.40,NW,305,11.0,14.0,62,0.00,,FEW020,0.00,VWS V14.01,2013-10-13 16:55:00,
2013-10-13 12:00:00,53.9,41.6,30.40,NW,304,14.0,14.0,63,0.00,,FEW020,0.00,VWS V14.01,2013-10-13 17:00:00,
2013-10-13 12:05:00,54.4,42.1,30.40,West,277,11.0,11.0,63,0.00,,FEW020,0.00,VWS V14.01,2013-10-13 17:05:00,
2013-10-13 12:10:00,54.8,41.6,30.40,NNW,337,7.0,12.0,61,0.00,,FEW020,0.00,VWS V14.01,2013-10-13 17:10:00,
2013-10-13 12:15:00,54.8,41.2,30.40,NW,322,8.0,8.0,60,0.00,,FEW020,0.00,VWS V14.01,2013-10-13 17:15:00,
2013-10-13 12:20:00,54.8,41.2,30.40,NNW,336,6.0,7.0,60,0.00,,FEW020,0.00,VWS V14.01,2013-10-13 17:20:00,
2013-10-13 12:25:00,54.8,41.2,30.40,NNW,340,12.0,12.0,60,0.00,,FEW020,0.00,VWS V14.01,2013-10-13 17:25:00,
2013-10-13 12:30:00,54.8,39.9,30.40,NNW,333,7.0,9.0,57,0.00,,FEW020,0.00,VWS V14.01,2013-10-13 17:30:00,
2013-10-13 12:35:00,55.1,40.6,30.40,WNW,301,2.0,2.0,58,0.00,,SCT036,0.00,VWS V14.01,2013-10-13 17:35:00,
2013-10-13 12:40:00,55.4,41.8,30.40,NW,309,10.0,12.0,60,0.00,,SCT036,0.00,VWS V14.01,2013-10-13 17:40:00,
2013-10-13 12:45:00,55.3,39.9,30.40,WNW,301,17.0,17.0,56,0.00,,SCT036,0.00,VWS V14.01,2013-10-13 17:45:00,
2013-10-13 12:50:00,55.0,38.2,30.40,West,268,17.0,17.0,53,0.00,,SCT036,0.00,VWS V14.01,2013-10-13 17:50:00,
2013-10-13 12:55:00,55.1,38.3,30.40,NW,304,16.0,16.0,53,0.00,,SCT036,0.00,VWS V14.01,2013-10-13 17:55:00,
2013-10-13 13:00:00,55.1,39.7,30.39,WNW,302,13.0,13.0,56,0.00,,SCT036,0.00,VWS V14.01,2013-10-13 18:00:00,
2013-10-13 13:05:00,55.3,39.0,30.39,WNW,287,10.0,12.0,54,0.00,,SCT036,0.00,VWS V14.01,2013-10-13 18:05:00,
2013-10-13 13:10:00,55.6,38.3,30.39,NW,306,12.0,12.0,52,0.00,,SCT036,0.00,VWS V14.01,2013-10-13 18:10:00,
2013-10-13 13:15:00,55.9,40.0,30.39,NW,318,7.0,8.0,55,0.00,,SCT036,0.00,VWS V14.01,2013-10-13 18:15:00,
2013-10-13 13:20:00,56.0,39.1,30.39,WNW,296,6.0,6.0,53,0.00,,SCT036,0.00,VWS V14.01,2013-10-13 18:20:00,
2013-10-13 13:25:00,56.3,38.9,30.39,NW,319,13.0,13.0,52,0.00,,SCT036,0.00,VWS V14.01,2013-10-13 18:25:00,
2013-10-13 13:30:00,56.5,39.6,30.39,WNW,301,10.0,11.0,53,0.00,,SCT036,0.00,VWS V14.01,2013-10-13 18:30:00,
2013-10-13 13:35:00,56.5,39.6,30.39,WNW,289,12.0,12.0,53,0.00,,FEW070,0.00,VWS V14.01,2013-10-13 18:35:00,
2013-10-13 13:40:00,56.5,40.1,30.39,WNW,288,13.0,13.0,54,0.00,,FEW070,0.00,VWS V14.01,2013-10-13 18:40:00,
2013-10-13 13:45:00,56.3,39.4,30.39,NW,322,10.0,10.0,53,0.00,,FEW070,0.00,VWS V14.01,2013-10-13 18:45:00,
2013-10-13 13:50:00,56.3,39.4,30.39,North,356,9.0,9.0,53,0.00,,FEW070,0.00,VWS V14.01,2013-10-13 18:50:00,
2013-10-13 13:55:00,56.3,38.9,30.39,WNW,282,8.0,8.0,52,0.00,,FEW070,0.00,VWS V14.01,2013-10-13 18:55:00,
2013-10-13 14:00:00,56.3,39.4,30.39,WNW,291,10.0,10.0,53,0.00,,FEW070,0.00,VWS V14.01,2013-10-13 19:00:00,
2013-10-13 14:05:00,56.6,38.2,30.39,NNW,342,2.0,5.0,50,0.00,,FEW070,0.00,VWS V14.01,2013-10-13 19:05:00,
2013-10-13 14:10:00,56.9,39.0,30.39,NW,325,7.0,11.0,51,0.00,,FEW070,0.00,VWS V14.01,2013-10-13 19:10:00,
2013-10-13 14:15:00,57.2,40.2,30.39,NW,306,8.0,11.0,53,0.00,,FEW070,0.00,VWS V14.01,2013-10-13 19:15:00,
2013-10-13 14:20:00,57.0,40.5,30.38,WNW,295,7.0,11.0,54,0.00,,FEW070,0.00,VWS V14.01,2013-10-13 19:20:00,
2013-10-13 14:25:00,57.3,38.8,30.38,NW,322,5.0,11.0,50,0.00,,FEW070,0.00,VWS V14.01,2013-10-13 19:25:00,
2013-10-13 14:30:00,57.5,38.5,30.38,NW,312,9.0,13.0,49,0.00,,FEW070,0.00,VWS V14.01,2013-10-13 19:30:00,
2013-10-13 14:35:00,57.5,39.0,30.38,WNW,302,17.0,17.0,50,0.00,,SKC,0.00,VWS V14.01,2013-10-13 19:35:00,
2013-10-13 14:40:00,57.2,39.2,30.38,North,0,1.0,2.0,51,0.00,,SKC,0.00,VWS V14.01,2013-10-13 19:40:00,
2013-10-13 14:45:00,57.5,39.0,30.38,NNW,339,8.0,8.0,50,0.00,,SKC,0.00,VWS V14.01,2013-10-13 19:45:00,
2013-10-13 14:50:00,57.8,38.8,30.38,NW,320,8.0,11.0,49,0.00,,SKC,0.00,VWS V14.01,2013-10-13 19:50:00,
2013-10-13 14:54:00,57.6,38.6,30.38,North,352,0.0,1.0,49,0.00,,SKC,0.00,VWS V14.01,2013-10-13 19:54:00,
2013-10-13 14:59:00,58.0,39.0,30.38,NNW,337,2.0,4.0,49,0.00,,SKC,0.00,VWS V14.01,2013-10-13 19:59:00,
2013-10-13 15:04:00,58.1,39.1,30.38,West,281,3.0,7.0,49,0.00,,SKC,0.00,VWS V14.01,2013-10-13 20:04:00,
2013-10-13 15:09:00,58.0,39.0,30.38,NNW,340,10.0,12.0,49,0.00,,SKC,0.00,VWS V14.01,2013-10-13 20:09:00,
2013-10-13 15:14:00,57.8,39.8,30.38,WNW,298,13.0,13.0,51,0.00,,SKC,0.00,VWS V14.01,2013-10-13 20:14:00,
2013-10-13 15:19:00,57.8,39.8,30.38,North,349,8.0,11.0,51,0.00,,SKC,0.00,VWS V14.01,2013-10-13 20:19:00,
2013-10-13 15:24:00,58.0,39.0,30.38,NNE,13,8.0,12.0,49,0.00,,SKC,0.00,VWS V14.01,2013-10-13 20:24:00,
2013-10-13 15:29:00,58.0,38.4,30.38,WNW,298,10.0,10.0,48,0.00,,SKC,0.00,VWS V14.01,2013-10-13 20:29:00,
2013-10-13 15:34:00,58.0,38.4,30.38,NNW,343,8.0,8.0,48,0.00,,SKC,0.00,VWS V14.01,2013-10-13 20:34:00,
2013-10-13 15:39:00,58.3,38.2,30.38,North,0,10.0,10.0,47,0.00,,SKC,0.00,VWS V14.01,2013-10-13 20:39:00,
2013-10-13 15:44:00,58.3,38.2,30.38,WNW,289,12.0,12.0,47,0.00,,SKC,0.00,VWS V14.01,2013-10-13 20:44:00,
2013-10-13 15:49:00,58.0,37.9,30.38,NNW,333,1.0,3.0,47,0.00,,SKC,0.00,VWS V14.01,2013-10-13 20:49:00,
2013-10-13 15:54:00,57.8,38.3,30.38,NW,312,1.0,3.0,48,0.00,,SKC,0.00,VWS V14.01,2013-10-13 20:54:00,
2013-10-13 15:59:00,58.1,37.5,30.38,NNW,332,3.0,8.0,46,0.00,,SKC,0.00,VWS V14.01,2013-10-13 20:59:00,
2013-10-13 16:04:00,58.1,38.0,30.38,NW,320,7.0,7.0,47,0.00,,SKC,0.00,VWS V14.01,2013-10-13 21:04:00,
2013-10-13 16:09:00,58.0,37.4,30.38,NW,306,9.0,12.0,46,0.00,,SKC,0.00,VWS V14.01,2013-10-13 21:09:00,
2013-10-13 16:14:00,58.0,37.4,30.38,NNW,336,5.0,6.0,46,0.00,,SKC,0.00,VWS V14.01,2013-10-13 21:14:00,
2013-10-13 16:19:00,58.0,36.8,30.38,NNW,346,0.0,1.0,45,0.00,,SKC,0.00,VWS V14.01,2013-10-13 21:19:00,
2013-10-13 16:24:00,58.0,36.8,30.38,NW,322,0.0,2.0,45,0.00,,SKC,0.00,VWS V14.01,2013-10-13 21:24:00,
2013-10-13 16:29:00,58.0,37.4,30.38,NNW,337,2.0,5.0,46,0.00,,SKC,0.00,VWS V14.01,2013-10-13 21:29:00,
2013-10-13 16:34:00,58.0,36.8,30.38,NNW,347,2.0,4.0,45,0.00,,SKC,0.00,VWS V14.01,2013-10-13 21:34:00,
2013-10-13 16:39:00,58.0,37.4,30.38,NNW,340,1.0,3.0,46,0.00,,SKC,0.00,VWS V14.01,2013-10-13 21:39:00,
2013-10-13 16:44:00,57.6,36.4,30.38,North,359,0.0,3.0,45,0.00,,SKC,0.00,VWS V14.01,2013-10-13 21:44:00,
2013-10-13 16:49:00,57.5,36.3,30.37,North,359,3.0,6.0,45,0.00,,SKC,0.00,VWS V14.01,2013-10-13 21:49:00,
2013-10-13 16:54:00,57.5,36.3,30.37,North,352,0.0,2.0,45,0.00,,SKC,0.00,VWS V14.01,2013-10-13 21:54:00,
2013-10-13 16:59:00,57.5,36.3,30.37,NW,315,3.0,5.0,45,0.00,,SKC,0.00,VWS V14.01,2013-10-13 21:59:00,
2013-10-13 17:04:00,57.0,36.4,30.37,NW,320,0.0,2.0,46,0.00,,SKC,0.00,VWS V14.01,2013-10-13 22:04:00,
2013-10-13 17:09:00,57.0,37.0,30.37,NW,320,0.0,0.0,47,0.00,,SKC,0.00,VWS V14.01,2013-10-13 22:09:00,
2013-10-13 17:14:00,57.0,36.4,30.37,NNW,337,0.0,4.0,46,0.00,,SKC,0.00,VWS V14.01,2013-10-13 22:14:00,
2013-10-13 17:19:00,57.0,37.0,30.38,NNW,337,0.0,0.0,47,0.00,,SKC,0.00,VWS V14.01,2013-10-13 22:19:00,
2013-10-13 17:24:00,57.0,36.4,30.38,NNW,339,0.0,0.0,46,0.00,,SKC,0.00,VWS V14.01,2013-10-13 22:24:00,
2013-10-13 17:29:00,56.9,36.9,30.38,NW,319,5.0,5.0,47,0.00,,SKC,0.00,VWS V14.01,2013-10-13 22:29:00,
2013-10-13 17:34:00,56.5,37.1,30.39,NW,315,0.0,0.0,48,0.00,,SKC,0.00,VWS V14.01,2013-10-13 22:34:00,
2013-10-13 17:39:00,56.5,37.1,30.39,NW,318,0.0,2.0,48,0.00,,SKC,0.00,VWS V14.01,2013-10-13 22:39:00,
2013-10-13 17:44:00,56.2,36.8,30.39,NW,318,0.0,0.0,48,0.00,,SKC,0.00,VWS V14.01,2013-10-13 22:44:00,
2013-10-13 17:49:00,56.0,36.6,30.39,NW,318,0.0,0.0,48,0.00,,SKC,0.00,VWS V14.01,2013-10-13 22:49:00,
2013-10-13 17:54:00,55.9,36.5,30.39,NW,318,0.0,0.0,48,0.00,,SKC,0.00,VWS V14.01,2013-10-13 22:54:00,
2013-10-13 17:59:00,55.7,36.8,30.39,NW,318,0.0,0.0,49,0.00,,SKC,0.00,VWS V14.01,2013-10-13 22:59:00,
2013-10-13 18:04:00,55.4,36.6,30.39,NW,318,0.0,0.0,49,0.00,,SKC,0.00,VWS V14.01,2013-10-13 23:04:00,
2013-10-13 18:09:00,55.1,36.8,30.39,NW,318,0.0,0.0,50,0.00,,SKC,0.00,VWS V14.01,2013-10-13 23:09:00,
2013-10-13 18:14:00,54.7,36.4,30.39,NW,318,0.0,0.0,50,0.00,,SKC,0.00,VWS V14.01,2013-10-13 23:14:00,
2013-10-13 18:19:00,54.2,36.5,30.40,NW,318,0.0,0.0,51,0.00,,SKC,0.00,VWS V14.01,2013-10-13 23:19:00,
2013-10-13 18:24:00,53.3,36.6,30.40,NW,318,0.0,0.0,53,0.00,,SKC,0.00,VWS V14.01,2013-10-13 23:24:00,
2013-10-13 18:29:00,52.6,36.5,30.40,NW,318,0.0,0.0,54,0.00,,SKC,0.00,VWS V14.01,2013-10-13 23:29:00,
2013-10-13 18:34:00,51.7,36.5,30.41,NW,318,0.0,0.0,56,0.00,,SKC,0.00,VWS V14.01,2013-10-13 23:34:00,
2013-10-13 18:39:00,51.1,36.4,30.41,NW,318,0.0,0.0,57,0.00,,SKC,0.00,VWS V14.01,2013-10-13 23:39:00,
2013-10-13 18:44:00,50.7,36.0,30.41,NW,318,0.0,0.0,57,0.00,,SKC,0.00,VWS V14.01,2013-10-13 23:44:00,
2013-10-13 18:49:00,50.1,36.8,30.41,NW,318,0.0,0.0,60,0.00,,SKC,0.00,VWS V14.01,2013-10-13 23:49:00,
2013-10-13 18:54:00,49.2,36.3,30.41,NW,318,0.0,0.0,61,0.00,,SKC,0.00,VWS V14.01,2013-10-13 23:54:00,
2013-10-13 18:59:00,48.5,36.5,30.41,NW,318,0.0,0.0,63,0.00,,SKC,0.00,VWS V14.01,2013-10-13 23:59:00,
2013-10-13 19:04:00,47.9,36.3,30.42,NW,318,0.0,0.0,64,0.00,,SKC,0.00,VWS V14.01,2013-10-14 00:04:00,
2013-10-13 19:09:00,47.4,36.2,30.42,NW,318,0.0,0.0,65,0.00,,SKC,0.00,VWS V14.01,2013-10-14 00:09:00,
2013-10-13 19:14:00,47.3,36.5,30.42,NW,318,0.0,0.0,66,0.00,,SKC,0.00,VWS V14.01,2013-10-14 00:14:00,
2013-10-13 19:19:00,46.8,36.8,30.42,NW,318,0.0,0.0,68,0.00,,SKC,0.00,VWS V14.01,2013-10-14 00:19:00,
2013-10-13 19:24:00,46.5,36.5,30.42,NW,318,0.0,0.0,68,0.00,,SKC,0.00,VWS V14.01,2013-10-14 00:24:00,
2013-10-13 19:29:00,46.4,36.8,30.42,NW,318,0.0,0.0,69,0.00,,SKC,0.00,VWS V14.01,2013-10-14 00:29:00,
2013-10-13 19:34:00,46.2,36.6,30.42,NW,318,0.0,0.0,69,0.00,,SKC,0.00,VWS V14.01,2013-10-14 00:34:00,
2013-10-13 19:39:00,46.2,36.6,30.42,NW,318,0.0,0.0,69,0.00,,SKC,0.00,VWS V14.01,2013-10-14 00:39:00,
2013-10-13 19:44:00,46.1,36.5,30.42,NW,318,0.0,0.0,69,0.00,,SKC,0.00,VWS V14.01,2013-10-14 00:44:00,
2013-10-13 19:49:00,46.1,36.5,30.43,NW,318,0.0,0.0,69,0.00,,SKC,0.00,VWS V14.01,2013-10-14 00:49:00,
2013-10-13 19:54:00,46.1,36.1,30.43,NW,318,0.0,0.0,68,0.00,,SKC,0.00,VWS V14.01,2013-10-14 00:54:00,
2013-10-13 19:59:00,46.1,36.1,30.43,NW,318,0.0,0.0,68,0.00,,SKC,0.00,VWS V14.01,2013-10-14 00:59:00,
2013-10-13 20:04:00,46.0,36.4,30.43,NW,318,0.0,0.0,69,0.00,,SKC,0.00,VWS V14.01,2013-10-14 01:04:00,
2013-10-13 20:09:00,46.0,36.8,30.43,NW,318,0.0,0.0,70,0.00,,SKC,0.00,VWS V14.01,2013-10-14 01:09:00,
2013-10-13 20:14:00,46.1,36.5,30.43,NW,318,0.0,0.0,69,0.00,,SKC,0.00,VWS V14.01,2013-10-14 01:14:00,
2013-10-13 20:19:00,46.2,36.2,30.42,NW,318,0.0,0.0,68,0.00,,SKC,0.00,VWS V14.01,2013-10-14 01:19:00,
2013-10-13 20:24:00,46.2,36.6,30.42,NW,318,0.0,0.0,69,0.00,,SKC,0.00,VWS V14.01,2013-10-14 01:24:00,
2013-10-13 20:29:00,46.2,36.6,30.42,NW,318,0.0,0.0,69,0.00,,SKC,0.00,VWS V14.01,2013-10-14 01:29:00,
2013-10-13 20:34:00,46.1,36.9,30.42,NW,318,0.0,0.0,70,0.00,,SKC,0.00,VWS V14.01,2013-10-14 01:34:00,
2013-10-13 20:39:00,46.1,36.9,30.42,NW,318,0.0,0.0,70,0.00,,SKC,0.00,VWS V14.01,2013-10-14 01:39:00,
2013-10-13 20:44:00,46.1,36.9,30.42,NW,318,0.0,0.0,70,0.00,,SKC,0.00,VWS V14.01,2013-10-14 01:44:00,
2013-10-13 20:49:00,46.0,36.8,30.42,NW,318,0.0,0.0,70,0.00,,SKC,0.00,VWS V14.01,2013-10-14 01:49:00,
2013-10-13 20:54:00,45.7,36.8,30.42,NW,318,0.0,0.0,71,0.00,,SKC,0.00,VWS V14.01,2013-10-14 01:54:00,
2013-10-13 20:59:00,45.4,36.6,30.42,NW,318,0.0,0.0,71,0.00,,SKC,0.00,VWS V14.01,2013-10-14 01:59:00,
2013-10-13 21:04:00,44.9,36.4,30.43,NW,318,0.0,0.0,72,0.00,,SKC,0.00,VWS V14.01,2013-10-14 02:04:00,
2013-10-13 21:09:00,44.3,36.2,30.43,NW,318,0.0,0.0,73,0.00,,SKC,0.00,VWS V14.01,2013-10-14 02:09:00,
2013-10-13 21:14:00,44.1,36.7,30.43,NW,318,0.0,0.0,75,0.00,,SKC,0.00,VWS V14.01,2013-10-14 02:14:00,
2013-10-13 21:19:00,43.6,36.2,30.43,NW,318,0.0,0.0,75,0.00,,SKC,0.00,VWS V14.01,2013-10-14 02:19:00,
2013-10-13 21:24:00,43.3,36.3,30.43,NW,318,0.0,0.0,76,0.00,,SKC,0.00,VWS V14.01,2013-10-14 02:24:00,
2013-10-13 21:29:00,42.9,36.2,30.43,NW,318,0.0,0.0,77,0.00,,SKC,0.00,VWS V14.01,2013-10-14 02:29:00,
2013-10-13 21:34:00,42.9,36.5,30.43,NW,318,0.0,0.0,78,0.00,,CLR,0.00,VWS V14.01,2013-10-14 02:34:00,
2013-10-13 21:39:00,42.9,36.8,30.43,NW,318,0.0,0.0,79,0.00,,CLR,0.00,VWS V14.01,2013-10-14 02:39:00,
2013-10-13 21:44:00,42.9,36.8,30.43,NW,318,0.0,0.0,79,0.00,,CLR,0.00,VWS V14.01,2013-10-14 02:44:00,
2013-10-13 21:49:00,43.1,37.0,30.43,NW,318,0.0,0.0,79,0.00,,CLR,0.00,VWS V14.01,2013-10-14 02:49:00,
2013-10-13 21:54:00,43.1,37.0,30.43,NW,318,0.0,0.0,79,0.00,,CLR,0.00,VWS V14.01,2013-10-14 02:54:00,
2013-10-13 21:59:00,42.9,36.8,30.43,NW,318,0.0,0.0,79,0.00,,CLR,0.00,VWS V14.01,2013-10-14 02:59:00,
2013-10-13 22:04:00,42.6,36.5,30.43,NW,318,0.0,0.0,79,0.00,,CLR,0.00,VWS V14.01,2013-10-14 03:04:00,
2013-10-13 22:09:00,42.3,36.3,30.43,NW,318,0.0,0.0,79,0.00,,CLR,0.00,VWS V14.01,2013-10-14 03:09:00,
2013-10-13 22:14:00,42.2,36.5,30.43,NW,318,0.0,0.0,80,0.00,,CLR,0.00,VWS V14.01,2013-10-14 03:14:00,
2013-10-13 22:19:00,41.9,36.2,30.43,NW,318,0.0,0.0,80,0.00,,CLR,0.00,VWS V14.01,2013-10-14 03:19:00,
2013-10-13 22:24:00,41.8,36.4,30.43,NW,318,0.0,0.0,81,0.00,,CLR,0.00,VWS V14.01,2013-10-14 03:24:00,
2013-10-13 22:29:00,41.6,36.5,30.43,NW,318,0.0,0.0,82,0.00,,CLR,0.00,VWS V14.01,2013-10-14 03:29:00,
2013-10-13 22:34:00,41.6,36.5,30.43,NW,318,0.0,0.0,82,0.00,,CLR,0.00,VWS V14.01,2013-10-14 03:34:00,
2013-10-13 22:39:00,41.6,36.8,30.43,NW,318,0.0,0.0,83,0.00,,CLR,0.00,VWS V14.01,2013-10-14 03:39:00,
2013-10-13 22:44:00,41.6,36.8,30.43,NW,318,0.0,0.0,83,0.00,,CLR,0.00,VWS V14.01,2013-10-14 03:44:00,
2013-10-13 22:49:00,41.6,36.8,30.43,NW,318,0.0,0.0,83,0.00,,CLR,0.00,VWS V14.01,2013-10-14 03:49:00,
2013-10-13 22:54:00,41.3,36.5,30.43,NW,318,0.0,0.0,83,0.00,,CLR,0.00,VWS V14.01,2013-10-14 03:54:00,
2013-10-13 22:59:00,41.8,37.3,30.43,NW,318,0.0,0.0,84,0.00,,CLR,0.00,VWS V14.01,2013-10-14 03:59:00,
2013-10-13 23:01:00,42.2,37.7,30.43,NW,318,0.0,0.0,84,0.00,,CLR,0.00,VWS V14.01,2013-10-14 04:01:00,
2013-10-13 23:02:00,42.3,37.5,30.43,NW,318,0.0,0.0,83,0.00,,CLR,0.00,VWS V14.01,2013-10-14 04:02:00,
2013-10-13 23:07:00,42.9,37.8,30.43,NW,318,0.0,0.0,82,0.00,,CLR,0.00,VWS V14.01,2013-10-14 04:07:00,
2013-10-13 23:12:00,42.6,37.2,30.43,NW,318,0.0,0.0,81,0.00,,CLR,0.00,VWS V14.01,2013-10-14 04:12:00,
2013-10-13 23:16:00,42.2,36.8,30.43,NW,318,0.0,0.0,81,0.00,,CLR,0.00,VWS V14.01,2013-10-14 04:16:00,
2013-10-13 23:21:00,41.9,36.5,30.43,NW,318,0.0,0.0,81,0.00,,CLR,0.00,VWS V14.01,2013-10-14 04:21:00,
2013-10-13 23:26:00,41.5,36.1,30.43,NW,318,0.0,0.0,81,0.00,,CLR,0.00,VWS V14.01,2013-10-14 04:26:00,
2013-10-13 23:31:00,41.1,36.0,30.44,NW,318,0.0,0.0,82,0.00,,CLR,0.00,VWS V14.01,2013-10-14 04:31:00,
2013-10-13 23:37:00,40.8,36.0,30.44,NW,318,0.0,0.0,83,0.00,,CLR,0.00,VWS V14.01,2013-10-14 04:37:00,
2013-10-13 23:41:00,40.5,35.8,30.44,NW,318,0.0,0.0,83,0.00,,CLR,0.00,VWS V14.01,2013-10-14 04:41:00,
2013-10-13 23:46:00,40.5,36.0,30.44,NW,318,0.0,0.0,84,0.00,,CLR,0.00,VWS V14.01,2013-10-14 04:46:00,
2013-10-13 23:51:00,40.3,35.9,30.44,NW,318,0.0,0.0,84,0.00,,CLR,0.00,VWS V14.01,2013-10-14 04:51:00,
2013-10-13 23:56:00,40.3,35.9,30.44,NW,318,0.0,0.0,84,0.00,,CLR,0.00,VWS V14.01,2013-10-14 04:56:00,